This is the latest recevied weather packets stored in our database for station/object OK1LPD-6. If no packets are shown the sender has not sent any weather packets the latest 10 day(s).
| Time | Temp. | Humidity | Pressure | Rain* | Wind** | Luminosity | Snow |
|---|---|---|---|---|---|---|---|
| 1787519178 | 12.78° C | 76% | 1023.1 hPa | 0 mm | - | - | - |
| 1787518578 | 13.33° C | 75% | 1022.9 hPa | 0 mm | - | - | - |
| 1787517995 | 13.33° C | 73% | 1022.9 hPa | 0 mm | - | - | - |
| 1787517378 | 13.33° C | 71% | 1022.9 hPa | 0 mm | - | - | - |
| 1787516778 | 13.89° C | 70% | 1022.8 hPa | 0 mm | - | - | - |
| 1787516199 | 14.44° C | 71% | 1022.7 hPa | 0 mm | - | - | - |
| 1787515578 | 14.44° C | 70% | 1022.7 hPa | 0 mm | - | - | - |
| 1787514978 | 15° C | 69% | 1022.6 hPa | 0 mm | - | - | - |
| 1787514396 | 15° C | 68% | 1022.5 hPa | 0 mm | - | - | - |
| 1787513778 | 15.56° C | 65% | 1022.6 hPa | 0 mm | - | - | - |
| 1787513179 | 15.56° C | 65% | 1022.5 hPa | 0 mm | - | - | - |
| 1787512599 | 15.56° C | 64% | 1022.5 hPa | 0 mm | - | - | - |
| 1787511979 | 16.11° C | 63% | 1022.4 hPa | 0 mm | - | - | - |
| 1787511379 | 16.67° C | 61% | 1022.2 hPa | 0 mm | - | - | - |
| 1787510797 | 17.78° C | 56% | 1022.1 hPa | 0 mm | - | - | - |
| 1787510179 | 18.33° C | 55% | 1022 hPa | 0 mm | - | - | - |
| 1787509580 | 18.33° C | 52% | 1022 hPa | 0 mm | - | - | - |
| 1787509000 | 18.89° C | 52% | 1021.7 hPa | 0 mm | - | - | - |
| 1787508379 | 18.89° C | 52% | 1021.7 hPa | 0 mm | - | - | - |
| 1787507779 | 20° C | 52% | 1021.6 hPa | 0 mm | - | - | - |
| 1787507197 | 20.56° C | 49% | 1021.5 hPa | 0 mm | - | - | - |
| 1787506580 | 20.56° C | 46% | 1021.4 hPa | 0 mm | - | - | - |
| 1787505980 | 21.11° C | 45% | 1021.2 hPa | 0 mm | - | - | - |
| 1787505400 | 21.67° C | 43% | 1021.3 hPa | 0 mm | - | - | - |
| 1787504780 | 22.22° C | 39% | 1021.2 hPa | 0 mm | - | - | - |
* Rain latest hour (hover to see other rain measurements)
** Current wind speed in m/s (hover to see current wind gust speed)